Location: Newark
(45.0500°N, 41.9667°E)
Time: 20:29:18
(UTC+00:00)

Starlink (trailer) - Pass Details

Date: 30 July 2019
Orbit: 549 x 551 km, 53.0° (Epoch: 23 August)

Event Time Altitude Azimuth Distance (km) Brightness Sun altitude
Rises 18:49:47 0° 231° (SW) 2,706 7.1 -18.1°
Reaches altitude 10° 18:52:01 10° 230° (SW) 1,816 6.2 -18.3°
Maximum altitude 18:56:08 78° 146° (SE) 566 3.4 -18.7°
Drops below altitude 10° 19:00:17 10° 59° (ENE) 1,826 6.2 -19.1°
Sets 19:02:31 0° 58° (ENE) 2,723 7.1 -19.4°
